Weather History for Central Park, NY

Change the Weather History Date:

Saturday, March 30, 2013

  Actual Average Record
Temperature  
Mean Temperature 50 °F 47 °F  
Max Temperature 59 °F 55 °F 82 °F (1998)
Min Temperature 40 °F 39 °F 16 °F (1887)
Degree Days  
Heating Degree Days 15 18  
Month to date heating degree days 747 681  
Since 1 July heating degree days 4120 4203  
Cooling Degree Days 0 0  
Month to date cooling degree days 0 0  
Year to date cooling degree days 0 0  
Moisture  
Dew Point 25 °F    
Average Humidity 42    
Maximum Humidity 64    
Minimum Humidity 19    
Precipitation  
Precipitation 0.00 in 0.16 in 2.45 in (2010)
Month to date precipitation 2.82 4.21  
Year to date precipitation 9.83 10.95  
Snow  
Snow 0.00 in 0.10 in 4.50 in (1883)
Month to date snowfall 7.3 3.9  
Since 1 July snowfall 26.1 25.2  
Snow Depth 0.00 in    
Sea Level Pressure  
Sea Level Pressure 30.12 in    
Wind  
Wind Speed 4 mph (WNW)    
Max Wind Speed 12 mph    
Max Gust Speed 17 mph    
Visibility 10 miles    
Events      
T = Trace of Precipitation, MM = Missing Value Source: NWS Daily Summary

Daily Weather History Graph

Daily Weather History Graph

Search for Another Location

Airport:

Trip Planner

Search our weather history database for the weather conditions in past years. The results will help you decide how hot, cold, wet, or windy it might be!

Date:

Astronomy

Mar. 30, 2013 Rise Set
Actual Time 6:42 AM EDT 7:18 PM EDT
Civil Twilight 6:14 AM EDT 7:46 PM EDT
Nautical Twilight 5:42 AM EDT 8:19 PM EDT
Astronomical Twilight 5:08 AM EDT 8:52 PM EDT
Moon 11:24 PM EDT (3/30) 8:34 AM EDT (3/30)
Length of Visible Light 13h 31m
Length of Day
12h 36m
Waning Gibbous, 86% of the Moon is Illuminated
Mar 30
Waning Gibbous
Apr 3
Last Quarter
Apr 10
New
Apr 18
First Quarter
Apr 25
Full

Hourly Weather History & Observations

Time (EDT) Temp. Windchill Dew Point Humidity Pressure Visibility Wind Dir Wind Speed Gust Speed Precip Events Conditions
12:51 AM 43.0 °F - 27.0 °F 53% 30.14 in 10.0 mi Calm Calm - N/A   Clear
1:51 AM 44.1 °F 41.5 °F 27.0 °F 51% 30.13 in 10.0 mi Variable 4.6 mph - N/A   Clear
2:51 AM 43.0 °F 38.8 °F 28.0 °F 56% 30.13 in 10.0 mi WNW 6.9 mph - N/A   Clear
3:51 AM 42.1 °F 40.2 °F 28.0 °F 58% 30.12 in 10.0 mi WNW 3.5 mph - N/A   Clear
4:51 AM 41.0 °F 38.0 °F 28.0 °F 60% 30.13 in 10.0 mi WNW 4.6 mph - N/A   Clear
5:51 AM 39.9 °F 36.7 °F 28.0 °F 63% 30.14 in 10.0 mi West 4.6 mph - N/A   Clear
6:51 AM 41.0 °F - 28.0 °F 60% 30.14 in 10.0 mi Calm Calm - N/A   Clear
7:51 AM 41.0 °F 36.4 °F 27.0 °F 57% 30.16 in 10.0 mi Variable 6.9 mph - N/A   Clear
8:51 AM 43.0 °F 38.8 °F 27.0 °F 53% 30.17 in 10.0 mi WNW 6.9 mph - N/A   Clear
9:51 AM 46.0 °F 43.9 °F 28.0 °F 50% 30.17 in 10.0 mi Variable 4.6 mph - N/A   Clear
10:51 AM 50.0 °F - 27.0 °F 41% 30.16 in 10.0 mi Variable 3.5 mph - N/A   Clear
11:51 AM 51.1 °F - 24.1 °F 35% 30.15 in 10.0 mi Variable 4.6 mph - N/A   Mostly Cloudy
12:51 PM 54.0 °F - 19.9 °F 26% 30.13 in 10.0 mi NW 8.1 mph - N/A   Scattered Clouds
1:51 PM 55.9 °F - 19.0 °F 24% 30.10 in 10.0 mi Variable 3.5 mph - N/A   Clear
2:51 PM 57.0 °F - 18.0 °F 22% 30.08 in 10.0 mi Variable 6.9 mph - N/A   Mostly Cloudy
3:51 PM 57.0 °F - 16.0 °F 20% 30.07 in 10.0 mi WNW 9.2 mph - N/A   Mostly Cloudy
4:51 PM 57.9 °F - 17.1 °F 20% 30.06 in 10.0 mi Variable 4.6 mph - N/A   Mostly Cloudy
5:51 PM 57.0 °F - 15.1 °F 19% 30.06 in 10.0 mi West 6.9 mph - N/A   Partly Cloudy
6:51 PM 54.0 °F - 25.0 °F 33% 30.07 in 10.0 mi Calm Calm - N/A   Clear
7:51 PM 51.1 °F - 27.0 °F 39% 30.09 in 10.0 mi Variable 3.5 mph - N/A   Clear
8:51 PM 48.9 °F - 28.9 °F 46% 30.10 in 10.0 mi NE 4.6 mph - N/A   Clear
9:51 PM 50.0 °F - 28.9 °F 44% 30.11 in 10.0 mi Calm Calm - N/A   Clear
10:51 PM 48.9 °F - 30.0 °F 48% 30.12 in 10.0 mi Calm Calm - N/A   Clear
11:51 PM 50.0 °F - 28.9 °F 44% 30.12 in 10.0 mi Calm Calm - N/A   Clear